Home   Weather   Fairfield   Past weeks
Flag for USA

Past Weather in Fairfield, Iowa, USA — Yesterday and Last 2 Weeks

Now
79 °F

Passing clouds.


Feels Like: 80 °F
Forecast: 79 / 56 °F
Wind: 9 mph from Northeast

Location: Fair Field

Current Time: Jun 18, 2019 at 4:34:31 pm

Latest Report: Jun 18, 2019 at 3:35 pm


Visibility: 10 mi

Pressure: 29.89 "Hg

Humidity: 58%

Dew Point: 63 °F

Location of FairfieldLocation

Past Weather in Fairfield — Graph

°F

Fairfield Temperature Yesterday

Maximum temperature yesterday: 73 °F (at 2:35 pm)
Minimum temperature yesterday: 61 °F (at 1:35 am)
Average temperature yesterday: 67 °F

High & Low Weather Summary for the Past Weeks

 TemperatureHumidityPressure
High88 °F (Jun 6, 3:35 pm)100% (Jun 6, 5:55 am)30.26 "Hg (Jun 6, 5:55 am)
Low50 °F (Jun 13, 4:15 am)20% (Jun 10, 5:55 pm)29.66 "Hg (Jun 15, 6:15 pm)
Average70 °F65%29.92 "Hg
* Reported Jun 3 2:15 pm — Jun 18 2:55 pm, Fairfield. Weather by CustomWeather, © 2019

Note: Actual official high and low records may vary slightly from our data, if they occured in-between our weather recording intervals... More about our weather records

Advertising

Fairfield Weather History for the Previous 24 Hours

Scroll right to see more
 ConditionsComfort  
Time TempWeatherWind HumidityBarometerVisibility
2:55 pm
Tue, Jun 18
77 °FPartly sunny.7 mph57%29.91 "Hg10 mi
2:35 pm77 °FPartly sunny.7 mph57%29.91 "Hg10 mi
2:15 pm79 °FPassing clouds.6 mph58%29.92 "Hg10 mi
1:55 pm77 °FScattered clouds.5 mph57%29.93 "Hg10 mi
1:35 pm77 °FSunny.6 mph57%29.93 "Hg10 mi
1:15 pm77 °FSunny.5 mph57%29.94 "Hg10 mi
12:55 pm77 °FSunny.5 mph57%29.94 "Hg10 mi
12:35 pm75 °FScattered clouds.3 mph61%29.95 "Hg10 mi
12:15 pm75 °FPartly sunny.6 mph61%29.95 "Hg10 mi
11:55 am73 °FPartly sunny.No wind69%29.96 "Hg10 mi
11:35 am73 °FPartly sunny.3 mph65%29.96 "Hg10 mi
10:55 am72 °FOvercast.5 mph73%29.97 "Hg10 mi
10:35 am73 °FPartly sunny.5 mph69%29.97 "Hg10 mi
10:15 am72 °FPassing clouds.3 mph73%29.96 "Hg10 mi
9:55 am72 °FPartly sunny.No wind73%29.96 "Hg10 mi
9:35 am70 °FPartly sunny.No wind78%29.97 "Hg10 mi
9:15 am70 °FPartly sunny.No wind78%29.97 "Hg10 mi
8:55 am68 °FPassing clouds.No wind83%29.97 "Hg10 mi
8:35 am68 °FSunny.No wind83%29.97 "Hg9 mi
8:15 am66 °FSunny.No wind94%29.97 "Hg8 mi
7:55 am64 °FSunny.No wind94%29.97 "Hg7 mi
7:35 am63 °FFog.No wind100%29.97 "Hg6 mi
7:15 am61 °FFog.No wind100%29.96 "Hg5 mi
6:55 am61 °FFog.3 mph100%29.96 "Hg2 mi
6:35 am59 °FFog.5 mph100%29.96 "Hg2 mi
6:15 am57 °FFog.No wind100%29.95 "Hg2 mi
5:35 am57 °FFog.3 mph100%29.96 "Hg1 mi
5:15 am57 °FFog.3 mph100%29.96 "Hg2 mi
4:55 am57 °FFog.No wind100%29.96 "Hg2 mi
4:35 am57 °FFog.No wind100%29.96 "Hg4 mi
4:15 am59 °FFog.No wind100%29.96 "Hg4 mi
3:55 am59 °FFog.5 mph100%29.96 "Hg4 mi
3:35 am59 °FFog.3 mph100%29.97 "Hg3 mi
3:15 am59 °FFog.No wind100%29.98 "Hg5 mi
2:55 am61 °FFog.No wind100%29.98 "Hg5 mi
2:35 am59 °FFog.3 mph100%29.97 "Hg5 mi
2:15 am59 °FFog.5 mph100%29.97 "Hg5 mi
1:55 am59 °FFog.6 mph100%29.98 "Hg5 mi
1:35 am61 °FFog.5 mph100%29.98 "Hg5 mi
1:15 am61 °FFog.No wind100%29.99 "Hg5 mi
12:55 am61 °FFog.No wind100%29.98 "Hg4 mi
12:35 am61 °FClear.5 mph100%29.97 "Hg7 mi
12:15 am61 °FFog.3 mph100%29.98 "Hg6 mi
11:55 pm
Mon, Jun 17
63 °FClear.No wind94%29.98 "Hg8 mi
11:35 pm63 °FClear.6 mph94%29.97 "Hg7 mi
11:15 pm63 °FClear.3 mph94%29.97 "Hg7 mi
10:55 pm64 °FClear.5 mph88%29.98 "Hg8 mi
10:35 pm64 °FClear.6 mph88%29.97 "Hg8 mi
10:15 pm64 °FClear.5 mph88%29.97 "Hg9 mi
9:55 pm64 °FClear.5 mph88%29.97 "Hg10 mi
9:35 pm66 °FClear.5 mph83%29.97 "Hg10 mi
9:15 pm66 °FClear.5 mph88%29.97 "Hg10 mi
8:55 pm68 °FClear.3 mph83%29.97 "Hg10 mi
8:35 pm68 °FSunny.5 mph83%29.96 "Hg10 mi
8:15 pm70 °FSunny.5 mph73%29.97 "Hg10 mi
7:55 pm72 °FSunny.6 mph69%29.97 "Hg10 mi
7:35 pm72 °FSunny.8 mph69%29.96 "Hg10 mi
7:15 pm72 °FSunny.7 mph69%29.97 "Hg10 mi
6:55 pm73 °FSunny.7 mph65%29.97 "Hg10 mi
6:35 pm73 °FSunny.7 mph65%29.96 "Hg10 mi
6:15 pm73 °FPassing clouds.7 mph65%29.97 "Hg10 mi
5:55 pm73 °FPassing clouds.7 mph69%29.97 "Hg10 mi
5:35 pm73 °FPassing clouds.8 mph69%29.96 "Hg10 mi
5:15 pm73 °FSunny.8 mph69%29.97 "Hg10 mi
4:35 pm73 °FPassing clouds.9 mph65%29.97 "Hg10 mi
4:15 pm73 °FScattered clouds.9 mph69%29.97 "Hg10 mi
Weather by CustomWeather, © 2019

See weather overview